Location: Grandview
(34.8900°N, 117.1058°W)
Time: 08:02:22
(UTC-07:00)

Tiangong 2 - Pass Details

Date: 15 October 2017
Orbit: 388 x 392 km, 42.8° (Epoch: 18 October)

Event Time Altitude Azimuth Distance (km) Brightness Sun altitude
Exits shadow 05:40:28 17° 336° (NNW) 1,094 3.1 -15.9°
Maximum altitude 05:41:39 20° 5° (N) 972 3.1 -15.7°
Drops below altitude 10° 05:44:07 10° 56° (NE) 1,419 4.8 -15.2°
Sets 05:46:33 0° 74° (ENE) 2,274 6.5 -14.7°
